RH
23 23 23 23 23 23 23 23 22 22 24 25 27 27 26 27 27 27 29 31 33 36 38 40 44 49 54 53 48 46 48 50 53 55 59 64 68 72 79 85 88 89
23 23 24 21 23 24 23 23 22 21 23 23 25 26 25 26 26 25 26 27 29 31 33 35 37 43 50 50 45 42 40 41 43 45 49 55 59 62 66 71 77 81
30 27 29 26 23 22 22 24 23 22 22 22 23 24 25 25 24 25 24 24 27 27 29 32 32 35 43 48 48 44 41 39 41 42 43 46 50 54 56 60 66 72
37 34 35 36 32 25 22 23 23 24 22 21 21 21 23 24 23 24 23 22 24 24 24 27 29 31 38 46 48 47 47 45 44 46 46 47 50 55 61 67 70 74
30 36 33 36 37 29 25 24 23 24 24 22 22 20 20 22 23 23 22 22 22 22 22 22 25 28 33 43 48 48 51 51 48 47 48 50 54 58 64 70 74 78
18 29 31 28 31 28 26 28 26 24 25 24 23 22 20 20 21 21 21 22 21 21 22 21 21 23 26 32 38 41 45 50 53 53 50 48 49 53 60 66 71 76
19 17 27 25 26 27 26 29 30 27 26 25 24 24 23 22 21 21 21 21 21 20 21 22 21 20 21 22 24 27 29 34 43 52 56 55 50 49 52 59 64 65
47 19 22 25 23 26 27 28 30 30 27 27 26 25 25 25 24 23 22 21 21 21 20 22 22 21 22 21 20 21 21 22 25 32 44 53 57 55 50 51 54 53
78 31 16 24 24 21 25 25 25 28 28 27 27 27 26 26 25 24 25 23 22 22 22 22 22 22 23 22 21 21 20 21 20 20 26 34 45 54 52 49 48 50
95 61 41 45 35 19 20 25 23 24 26 25 26 27 26 26 26 25 25 24 23 22 22 22 22 22 22 22 22 22 21 21 22 21 21 22 28 38 46 52 54 57
99 94 85 82 66 37 20 20 23 23 24 25 24 25 25 24 25 26 25 24 24 23 22 22 21 21 21 21 21 22 22 22 22 23 23 22 23 26 31 42 51 57
99 101 100 99 90 69 44 29 24 22 22 24 24 23 25 24 24 24 25 25 24 23 23 22 21 21 20 20 19 19 20 20 21 22 23 23 23 25 26 29 36 44
100 103 102 95 82 76 71 60 48 35 24 23 24 24 23 24 24 24 24 25 24 23 23 22 22 21 21 20 20 20 20 19 19 19 20 21 21 23 24 26 30 33
101 102 101 94 85 76 62 52 56 59 44 25 22 26 25 23 24 24 24 24 24 24 23 23 22 22 22 21 21 21 21 21 22 21 20 21 21 21 21 21 24 27
101 102 101 97 99 92 61 33 39 67 73 46 25 23 25 25 24 23 24 24 23 23 23 23 23 21 22 22 21 22 22 22 24 24 24 23 23 23 24 23 22 22
96 97 101 100 101 100 86 58 45 71 93 71 40 28 24 23 25 23 22 23 23 23 22 22 22 21 21 21 21 22 23 23 24 25 26 27 27 25 25 24 24 24
98 96 96 100 103 102 100 85 67 76 82 58 38 36 28 20 21 22 22 22 21 22 22 21 20 20 21 21 21 21 22 23 23 24 25 24 25 27 28 27 26 25
82 94 94 92 96 100 103 100 89 86 75 47 30 32 32 27 23 18 18 20 20 19 20 19 20 19 19 20 21 20 21 22 22 23 25 26 28 26 22 24 28 27
47 68 79 76 77 82 87 94 98 99 95 76 49 31 26 31 35 30 23 18 18 18 18 17 18 19 19 19 19 20 21 21 21 23 28 38 56 64 48 29 23 26
28 39 52 56 61 66 67 69 79 92 101 100 85 62 40 30 40 51 47 32 21 17 18 19 17 17 18 18 18 19 21 21 20 23 25 28 46 69 73 52 30 24
19 23 31 37 45 59 65 61 62 75 92 100 100 96 80 52 38 47 56 51 37 22 15 17 19 19 19 19 19 19 20 22 20 20 22 21 21 31 44 45 33 24
16 15 18 21 25 39 58 67 68 71 85 99 101 102 102 84 60 60 75 82 77 61 39 22 17 18 18 18 21 21 19 21 22 21 21 22 22 20 22 26 27 24
17 16 15 15 14 20 37 57 70 70 76 93 101 99 102 99 90 91 97 98 99 98 85 59 40 35 30 22 20 22 22 22 22 23 24 23 23 24 23 22 23 24
17 17 16 15 12 13 19 34 52 61 64 72 81 85 91 98 101 103 102 99 98 101 103 97 84 76 67 48 29 21 23 31 36 36 37 37 32 28 28 28 30 30
17 17 17 17 15 13 13 18 29 42 52 59 62 65 72 81 93 102 102 101 102 100 100 103 100 96 95 86 65 47 41 51 68 77 78 73 58 42 41 54 69 72
16 16 15 15 16 15 14 14 16 23 35 46 52 57 60 63 78 98 101 94 95 102 102 99 96 96 100 100 94 88 82 84 94 104 107 102 85 67 62 70 87 100
Wind_Speed
10 10 11 12 13 14 14 15 15 16 16 17 16 16 16 16 15 15 15 14 14 14 15 16 17 16 15 15 15 15 15 16 17 17 18 18 18 18 17 16 16 16
9 10 11 11 12 13 14 14 15 15 15 16 16 16 16 16 15 14 14 13 12 13 13 14 15 14 13 13 13 14 14 15 15 16 16 17 17 17 17 17 16 16
11 11 11 11 12 13 14 15 15 16 16 16 16 16 16 16 15 14 14 13 12 11 11 12 13 13 13 13 12 12 13 13 13 13 14 15 16 16 16 15 15 15
12 14 14 14 14 14 14 15 16 17 17 17 17 17 17 16 16 15 14 13 12 11 11 11 11 12 12 12 12 11 11 10 11 11 11 12 12 12 11 10 10 10
13 14 15 15 16 16 16 16 17 18 19 19 19 19 18 17 17 16 16 15 14 12 11 11 11 11 12 12 11 10 10 9 9 9 9 8 8 7 6 5 6 6
14 14 15 16 17 18 17 17 18 19 20 20 21 20 20 19 19 18 17 16 15 14 13 12 12 11 12 12 11 10 9 9 8 8 7 7 6 6 5 4 4 5
17 16 16 17 18 19 19 19 19 20 21 21 22 22 21 21 20 20 19 18 17 17 15 14 14 14 13 13 12 11 11 10 9 8 7 6 6 6 6 5 5 5
18 19 19 19 20 20 21 21 21 21 22 22 23 23 22 22 21 21 21 20 19 19 18 16 16 16 15 15 14 13 13 12 12 11 10 9 9 8 8 8 7 6
20 21 22 22 23 23 22 22 23 23 23 23 24 24 23 23 22 22 21 21 21 20 19 19 18 18 17 17 17 16 15 14 14 13 14 13 13 12 11 10 9 8
21 21 21 25 27 27 26 25 24 24 24 24 25 25 25 24 23 23 22 21 21 21 20 20 19 19 19 19 19 18 17 17 16 16 16 16 16 15 14 12 12 12
25 23 27 33 33 30 29 28 27 26 25 26 26 26 26 26 25 24 23 23 22 22 21 20 20 20 20 20 20 20 20 19 19 18 19 19 18 18 17 17 17 17
31 33 37 40 37 33 30 29 29 29 28 27 28 28 27 27 26 25 25 24 24 23 22 21 21 21 20 20 20 20 20 21 21 20 21 21 21 20 21 21 21 20
36 37 40 40 38 35 32 30 30 31 31 30 29 30 29 29 28 27 27 26 25 24 24 23 22 22 22 21 21 20 21 21 21 22 23 23 23 23 24 24 23 24
39 38 40 41 40 38 35 33 32 31 32 34 33 31 31 31 31 30 29 28 28 27 26 25 25 24 24 23 23 22 22 22 22 22 23 23 23 24 26 26 26 26
41 39 39 42 43 41 39 37 35 32 31 35 36 36 35 34 34 33 32 31 30 30 29 28 27 27 27 26 25 24 24 23 23 23 24 24 24 25 26 27 27 27
45 43 41 41 43 43 42 40 36 34 34 36 38 39 38 37 36 35 35 34 33 33 32 31 30 30 29 29 28 27 26 25 25 25 25 26 26 26 27 28 29 28
50 48 44 43 43 43 43 42 40 41 42 41 40 40 40 39 38 37 37 36 36 35 35 34 33 32 32 31 31 30 29 28 28 27 28 28 28 28 29 29 30 30
53 52 48 46 45 44 43 43 44 47 47 45 43 42 41 40 40 40 39 39 38 38 37 36 36 35 34 34 33 32 31 31 30 30 31 30 30 30 31 31 31 31
57 57 54 52 50 48 46 44 46 49 49 46 45 44 44 43 43 42 42 41 41 40 39 39 38 37 37 36 35 34 34 33 33 32 32 31 31 32 33 33 33 33
63 61 59 57 54 53 51 49 49 50 50 49 47 46 46 46 45 44 43 43 43 43 42 41 41 40 39 38 37 36 36 36 35 35 34 34 35 36 35 33 34 34
68 66 64 61 58 56 55 53 53 53 52 50 49 48 48 48 47 46 44 43 44 45 45 44 43 42 41 40 39 38 38 38 38 38 37 37 38 39 39 37 36 36
69 69 68 66 63 60 58 56 56 56 54 53 51 50 49 49 48 46 44 44 45 46 46 46 45 44 42 41 41 40 40 40 40 40 40 39 39 39 40 40 39 38
68 70 70 70 68 65 63 61 60 60 58 57 55 52 50 49 49 46 44 44 46 46 46 46 45 44 43 42 41 41 42 42 41 40 40 40 40 40 40 40 40 40
67 69 70 70 70 69 67 65 64 63 62 61 60 57 53 51 50 49 47 48 48 47 46 45 44 43 43 42 42 41 42 42 42 42 41 41 41 41 41 40 40 41
66 67 69 70 71 71 71 69 68 66 65 64 63 61 59 56 54 53 53 53 53 51 49 47 45 44 43 43 44 44 44 43 42 43 43 43 43 43 42 41 41 41
65 66 68 70 71 72 72 72 71 70 68 67 66 64 63 61 59 58 58 57 57 55 52 48 47 46 45 44 44 45 45 45 45 44 44 45 45 45 45 44 43 42
Wind_Direction
159 157 157 158 161 163 166 168 168 166 164 163 163 163 162 160 158 156 153 149 140 134 131 129 128 125 119 116 116 118 122 124 124 123 123 122 121 119 116 112 109 106
180 177 176 175 175 176 177 178 179 177 176 175 174 173 172 170 168 167 163 157 149 143 140 140 138 133 126 119 116 116 117 119 120 120 120 120 119 117 114 111 109 107
203 198 199 199 194 190 189 189 189 188 187 186 186 184 181 180 180 179 176 170 163 156 152 152 152 148 139 129 125 123 121 119 119 118 117 117 117 114 112 110 108 107
218 215 215 216 212 206 202 199 199 198 197 196 195 194 192 191 191 190 189 185 180 175 168 163 162 161 155 143 136 134 133 132 129 126 124 121 119 116 112 110 109 109
229 225 224 223 218 215 212 210 209 207 206 204 203 202 201 200 201 201 200 198 195 191 187 181 174 171 170 164 155 149 146 147 146 144 143 140 136 133 127 121 120 117
239 231 228 227 224 220 219 217 217 216 214 212 210 208 207 206 207 208 208 208 207 205 204 201 194 188 186 186 185 179 172 168 165 161 160 162 163 162 160 155 145 135
246 239 233 233 231 229 227 224 222 222 221 219 217 215 213 212 212 213 214 215 215 215 216 214 211 208 204 204 206 206 204 200 196 190 187 187 188 188 188 187 180 168
246 244 239 238 237 236 234 231 227 226 224 224 223 221 220 219 218 218 219 219 221 222 223 223 221 220 220 220 220 219 218 217 215 213 212 212 213 212 211 210 206 198
244 247 246 244 242 240 237 235 232 230 227 225 225 226 225 225 224 224 224 225 226 227 227 228 229 229 230 231 231 231 229 225 224 223 223 224 225 226 225 224 225 229
235 246 251 248 246 243 240 238 235 233 231 228 227 228 228 228 228 228 229 230 231 232 233 233 234 235 236 237 238 239 238 236 234 233 232 231 231 232 233 234 237 241
220 225 233 237 238 238 238 239 237 235 233 232 231 231 230 230 231 231 232 233 234 235 236 237 238 239 240 241 242 244 244 244 243 242 241 240 239 238 238 238 239 241
218 216 221 228 231 233 235 238 239 238 235 234 233 233 233 234 234 234 235 236 237 238 238 240 241 242 243 243 245 247 248 248 249 249 249 248 246 245 243 240 241 242
222 221 222 227 230 231 232 234 237 238 237 236 235 234 235 235 236 237 238 239 240 241 242 242 243 243 245 246 246 248 250 251 252 253 254 254 253 251 249 246 245 246
225 227 227 229 231 230 229 231 234 236 238 237 237 236 236 236 237 238 239 241 242 243 245 247 248 248 248 248 249 249 251 253 254 256 257 257 258 258 256 253 251 250
224 228 229 229 230 231 230 230 232 235 239 239 237 237 237 237 237 238 239 240 242 244 246 248 250 252 253 254 254 254 254 255 256 258 260 260 261 261 261 260 258 255
225 229 232 231 231 232 231 231 232 235 238 239 237 237 238 238 238 238 239 240 242 244 246 248 249 252 254 256 256 257 258 259 260 261 263 264 264 264 264 265 264 261
228 230 232 233 234 234 233 231 231 233 237 239 239 239 240 240 240 240 241 241 243 245 247 248 250 252 253 255 256 258 260 261 263 264 264 265 266 266 266 266 266 266
232 232 231 232 234 236 235 233 231 233 237 240 241 241 242 243 243 244 244 244 245 247 249 250 251 253 254 255 257 259 261 263 265 267 268 269 270 269 267 267 268 267
234 235 235 234 235 237 238 236 235 236 237 239 240 241 242 244 245 245 246 247 248 249 251 252 253 254 255 256 258 260 262 264 266 267 268 270 270 268 267 267 267 268
234 235 236 236 236 237 238 238 238 239 238 239 240 241 242 243 244 245 246 247 249 250 251 253 254 255 257 258 259 261 263 265 265 265 265 265 265 265 266 267 268 268
234 235 236 236 237 238 239 239 239 239 240 239 240 241 242 243 244 245 247 249 251 251 252 253 254 255 257 259 260 262 263 265 266 266 266 265 265 266 268 269 269 270
235 236 236 237 237 237 238 238 239 240 240 240 240 241 241 243 244 246 249 253 254 254 253 253 254 255 255 257 259 262 263 265 265 267 268 267 266 267 268 270 270 270
235 236 237 238 238 238 237 237 238 240 241 241 242 241 240 240 242 244 248 251 253 253 254 254 254 255 256 257 258 261 263 265 265 266 267 268 268 267 268 269 271 272
236 236 237 238 238 238 237 237 237 239 241 242 243 244 243 241 241 241 242 244 246 249 252 254 255 257 259 260 260 260 262 264 266 266 266 266 266 267 268 269 270 272
238 237 236 237 238 239 239 238 238 238 240 241 243 245 245 244 244 243 242 243 244 246 250 254 256 258 260 262 263 262 261 263 265 267 268 268 265 264 266 268 271 272
240 239 238 237 238 239 240 240 239 239 239 240 242 244 245 245 245 245 245 246 247 248 249 253 257 258 260 262 263 263 263 263 262 263 267 269 268 267 265 266 269 272